Location: Baia de Cri?
(46.1667°N, 22.7167°E)
Time: 21:15:22
(UTC+00:00)

Cosmos 1484 Rocket - Pass Details

Date: 15 January 2026
Orbit: 439 x 467 km, 97.6° (Epoch: 10 February)

Event Time Altitude Azimuth Distance (km) Brightness Sun altitude
Rises 05:12:45 0° 1° (N) 2,452 5.9 -9.4°
Reaches altitude 10° 05:15:01 10° 347° (NNW) 1,580 4.8 -9.1°
Maximum altitude 05:17:48 24° 292° (WNW) 967 3.5 -8.6°
Drops below altitude 10° 05:20:36 10° 236° (SW) 1,582 4.8 -8.2°
Sets 05:22:52 0° 222° (SW) 2,456 5.9 -7.8°
